C/2017 E1 ( Borisov )

Japanese version
Home page
Updated on March 25, 2017

---------------------------------------------------------------------

* Profile

Discovery Date March 1, 2017
Magnitude 17.0 mag
Discoverer Gennadii Vladimirovich Borisov (Nauchnij, Crimea)

* Pictures

* Orbital Elements

T 2017 Apr. 10.18643 TT                                 MPCW
q   0.8999025            (2000.0)            P               Q
                   Peri.  152.56019     +0.43574323     +0.88709925
                   Node   142.70347     -0.86499651     +0.45949108
e   1.0            Incl.   14.55309     -0.24881493     -0.04385061
From 90 observations 2017 Mar. 1-8.

* Finding Charts

* Magnitudes Graph

        m1 = 12.5 + 5 log d + 10.0 log r

---------------------------------------------------------------------

The orbital elements are published on M.P.E.C. 2017-E59.
The charts are made with StellaNavigator Ver.10 (AstroArts).
The magnitudes graphs are made with Comet for Windows.

---------------------------------------------------------------------

Copyright(C) Seiichi Yoshida (comet@aerith.net). All rights reserved.